This is the latest recevied weather packets stored in our database for station/object W8BS. If no packets are shown the sender has not sent any weather packets the latest 10 day(s).
| Time | Temp. | Humidity | Pressure | Rain* | Wind** | Luminosity | Snow |
|---|---|---|---|---|---|---|---|
| 1778112136 | 10° C | 99% | 1011.1 hPa | 0 mm | - | 0 W/m² | - |
| 1778111834 | 10° C | 99% | 1011.3 hPa | 0 mm | - | 0 W/m² | - |
| 1778111529 | 10° C | 99% | 1011.6 hPa | 0 mm | - | 0 W/m² | - |
| 1778111226 | 10° C | 99% | 1011.9 hPa | 0 mm | - | 1 W/m² | - |
| 1778110924 | 10° C | 99% | 1011.8 hPa | 0 mm | - | 2 W/m² | - |
| 1778110621 | 10° C | 99% | 1011.5 hPa | 0 mm | - | 3 W/m² | - |
| 1778110317 | 10° C | 99% | 1011.7 hPa | 0 mm | - | 6 W/m² | - |
| 1778110014 | 10° C | 99% | 1011.4 hPa | 0 mm | - | 6 W/m² | - |
| 1778109709 | 10° C | 99% | 1011.7 hPa | 0 mm | - | 6 W/m² | - |
| 1778109406 | 10° C | 99% | 1011.7 hPa | 0 mm | - | 6 W/m² | - |
| 1778109105 | 10.56° C | 99% | 1011.7 hPa | 0 mm | - | 6 W/m² | - |
| 1778108801 | 10.56° C | 99% | 1011.6 hPa | 0 mm | - | 7 W/m² | - |
| 1778108498 | 10.56° C | 99% | 1011.5 hPa | 0 mm | - | 8 W/m² | - |
| 1778108195 | 10.56° C | 99% | 1011.3 hPa | 1.78 mm | - | 21 W/m² | - |
| 1778107892 | 10.56° C | 99% | 1011.5 hPa | 1.78 mm | - | 18 W/m² | - |
| 1778107588 | 10.56° C | 99% | 1011.5 hPa | 0 mm | - | 15 W/m² | - |
| 1778107285 | 10.56° C | 99% | 1011.5 hPa | 0 mm | - | 15 W/m² | - |
| 1778106981 | 10.56° C | 99% | 1011.1 hPa | 1.27 mm | - | 17 W/m² | - |
| 1778106677 | 10.56° C | 99% | 1011 hPa | 1.27 mm | - | 23 W/m² | - |
| 1778106374 | 10.56° C | 99% | 1010.9 hPa | 0 mm | - | 25 W/m² | - |
| 1778106070 | 10.56° C | 99% | 1010.9 hPa | 0 mm | - | 50 W/m² | - |
| 1778105768 | 11.11° C | 99% | 1011 hPa | 0 mm | - | 25 W/m² | - |
| 1778105466 | 11.11° C | 99% | 1010.7 hPa | 1.78 mm | - | 24 W/m² | - |
| 1778105162 | 11.11° C | 99% | 1011.1 hPa | 1.78 mm | - | 41 W/m² | - |
| 1778104857 | 10.56° C | 99% | 1011.1 hPa | 1.27 mm | - | 65 W/m² | - |
* Rain latest hour (hover to see other rain measurements)
** Current wind speed in m/s (hover to see current wind gust speed)